User: anonymous   Login
Location: Unspecified
(0.0000°N, 0.0000°E)
Time: 17:55:04
(UTC+02:00)
Language:

CZ-4 DEB - Orbit

View from above orbital plane
View from above orbital plane
View from above satellite
View from above satellite

Ground track
Ground track

The orbit data is extracted from the following two-line orbital elements,

1 29508U 06046D   16119.73666925  .00026478  00000-0  53853-3 0  9996
2 29508  97.6532 157.3505 0004229  83.8995 276.2735 15.46267287521348
Epoch (UTC): 28 April 2016 17:40:48
Eccentricity: 0.0004229
inclination: 97.6532°
perigee height: 425 km
apogee height: 430 km
right ascension of ascending node: 157.3505°
argument of perigee: 83.8995°
revolutions per day: 15.46267287
mean anomaly at epoch: 276.2735°
orbit number at epoch: 52134

The dashed part of the orbit path shows where the satellite is in the earth's shadow,  

DLR